sat.trackr.live / text

‹ back to catalog

COSMOS 2477 (745)

NORAD 37868 · 2011-064B

PAYLOAD ACTIVE UNKNOWN

§ Identity

Operator
Country
CIS
Launch date
2011-11-04
Launch site
TYMSC
Launch vehicle
Mass (kg)
RCS (m²)
5.57

Purposes: nav

External: N2YO · Heavens-Above · Gunter

§ Orbital elements

Epoch: 2026-05-23T13:32:11.105952Z

Period
675.73 min
Inclination
65.2635°
Eccentricity
0.0020437
Mean motion
2.13102783 rev/d
Perigee alt
19,077.7 km
Apogee alt
19,182.0 km
Semi-major
25,508.0 km
B*
0.0000e+0
RAAN
73.7813°
Arg perigee
242.6206°
Mean anomaly
292.2679°
Rev number
11,323

§ Raw data

COSMOS 2477 (745)1 37868U 11064B   26143.56401743 -.00000023  00000+0  00000+0 0  99942 37868  65.2635  73.7813 0020437 242.6206 292.2679  2.13102783113232

JSON: /api/v1/satellites/37868 · /tle

For live sub-satellite position, see the globe view (requires WebGL).

§ Visibility from observer

Set your observer location to see the next 7 days of passes ≥ 10°. The values pass through the URL so the page stays shareable.

No JS? Fill the form by hand. The geolocation button needs JavaScript.